Location: Observatory Park - Geauga Park District
(41.5832°N, 81.0716°W)
Time: 21:26:08
(UTC-04:00)

Envisat - Pass Details

Date: 05 October 2021
Orbit: 764 x 766 km, 98.2° (Epoch: 17 October)

Event Time Altitude Azimuth Distance (km) Brightness Sun altitude
Rises 05:27:12 0° 28° (NNE) 3,235 6.9 -22.8°
Reaches altitude 10° 05:30:07 10° 46° (NE) 2,304 6.3 -22.3°
Maximum altitude 05:33:47 20° 92° (E) 1,716 5.6 -21.6°
Drops below altitude 10° 05:37:27 10° 139° (SE) 2,292 5.8 -20.9°
Sets 05:40:20 0° 156° (SSE) 3,213 6.4 -20.4°
